| time (UTC) | temp C | wind direction | speed KPH | gust KPH | rain 1hr cm | rain 24hr cm | rain mn cm | humidity % | barometer mb |
| 20260906171612 | 22 | 1 | 3.2 | 11.3 | 0.00 | 0.00 | 0.00 | 97 | 980.0 |
| 20260906170008 | 22 | 1 | 3.2 | 12.9 | 0.00 | 0.00 | 0.00 | 98 | 980.1 |
| 20260906164506 | 21 | 10 | 3.2 | 9.7 | 0.00 | 0.00 | 0.00 | 98 | 980.2 |
| 20260906163005 | 21 | 10 | 3.2 | 12.9 | 0.00 | 0.00 | 0.00 | 98 | 979.9 |
| 20260906161508 | 21 | 1 | 3.2 | 9.7 | 0.00 | 0.00 | 0.00 | 99 | 980.0 |
| 20260906160011 | 21 | 10 | 3.2 | 8.0 | 0.00 | 0.00 | 0.00 | 98 | 980.0 |
| 20260906154504 | 21 | 360 | 3.2 | 6.4 | 0.00 | 0.00 | 0.00 | 99 | 979.9 |
| 20260906153003 | 21 | 11 | 3.2 | 8.0 | 0.00 | 0.00 | 0.00 | 99 | 980.1 |
| 20260906151502 | 21 | 11 | 3.2 | 12.9 | 0.00 | 0.00 | 0.00 | 99 | 980.2 |
| 20260906150002 | 21 | 10 | 3.2 | 9.7 | 0.00 | 0.00 | 0.00 | 99 | 980.4 |
| 20260906144501 | 21 | 11 | 3.2 | 11.3 | 0.00 | 0.00 | 0.00 | 99 | 980.2 |
| 20260906143114 | 20 | 10 | 3.2 | 4.8 | 0.00 | 0.00 | 0.00 | 99 | 980.2 |
| 20260906141602 | 20 | 360 | 1.6 | 9.7 | 0.00 | 0.00 | 0.00 | 98 | 980.2 |
| 20260906134559 | 20 | 10 | 4.8 | 9.7 | 0.00 | 0.00 | 0.00 | 98 | 980.1 |
| 20260906133106 | 20 | 10 | 3.2 | 9.7 | 0.00 | 0.00 | 0.00 | 98 | 980.4 |
| 20260906131559 | 20 | 360 | 3.2 | 8.0 | 0.00 | 0.00 | 0.00 | 98 | 980.1 |
| 20260906130054 | 20 | 10 | 1.6 | 11.3 | 0.00 | 0.00 | 0.00 | 99 | 979.6 |
| 20260906124553 | 20 | 10 | 3.2 | 8.0 | 0.00 | 0.00 | 0.00 | 99 | 979.5 |
| 20260906123051 | 20 | 10 | 3.2 | 9.7 | 0.00 | 0.00 | 0.00 | 98 | 979.4 |
| 20260906121551 | 20 | 9 | 3.2 | 8.0 | 0.00 | 0.00 | 0.00 | 99 | 979.3 |
| 20260906120048 | 20 | 10 | 3.2 | 8.0 | 0.00 | 0.00 | 0.00 | 99 | 979.1 |
| 20260906114550 | 20 | 10 | 3.2 | 9.7 | 0.00 | 0.00 | 0.00 | 99 | 978.8 |
| 20260906113049 | 20 | 10 | 1.6 | 4.8 | 0.00 | 0.00 | 0.00 | 99 | 978.8 |
| 20260906111545 | 20 | 10 | 1.6 | 6.4 | 0.00 | 0.00 | 0.00 | 98 | 978.7 |
| 20260906110145 | 20 | 10 | 0.0 | 4.8 | 0.00 | 0.00 | 0.00 | 98 | 978.8 |
| 20260906104542 | 20 | 9 | 0.0 | 6.4 | 0.00 | 0.00 | 0.00 | 98 | 978.8 |
| 20260906103042 | 20 | 10 | 1.6 | 8.0 | 0.00 | 0.00 | 0.00 | 98 | 978.8 |
| 20260906101542 | 20 | 10 | 1.6 | 6.4 | 0.00 | 0.00 | 0.00 | 98 | 978.7 |
| 20260906100040 | 20 | 9 | 0.0 | 4.8 | 0.00 | 0.00 | 0.00 | 98 | 978.6 |
| 20260906094539 | 20 | 9 | 1.6 | 4.8 | 0.00 | 0.00 | 0.00 | 98 | 978.6 |
| 20260906093039 | 20 | 9 | 0.0 | 1.6 | 0.00 | 0.00 | 0.00 | 98 | 978.7 |
| 20260906091538 | 20 | 9 | 1.6 | 3.2 | 0.00 | 0.00 | 0.00 | 98 | 978.7 |
| 20260906090036 | 20 | 9 | 0.0 | 1.6 | 0.00 | 0.00 | 0.00 | 98 | 978.5 |
| 20260906084536 | 20 | 9 | 0.0 | 6.4 | 0.00 | 0.00 | 0.00 | 98 | 978.4 |
| 20260906083040 | 20 | 10 | 0.0 | 8.0 | 0.00 | 0.00 | 0.00 | 98 | 978.3 |
| 20260906081537 | 20 | 9 | 1.6 | 6.4 | 0.00 | 0.00 | 0.00 | 98 | 978.1 |
| 20260906080033 | 21 | 9 | 3.2 | 6.4 | 0.00 | 0.00 | 0.00 | 98 | 978.1 |
| 20260906074535 | 21 | 10 | 1.6 | 4.8 | 0.00 | 0.00 | 0.00 | 97 | 978.2 |
| 20260906073030 | 21 | 9 | 0.0 | 1.6 | 0.00 | 0.00 | 0.00 | 98 | 978.6 |
| 20260906071530 | 21 | 9 | 0.0 | 3.2 | 0.00 | 0.00 | 0.00 | 97 | 978.4 |
| 20260906070031 | 21 | 9 | 0.0 | 3.2 | 0.00 | 0.00 | 0.00 | 97 | 978.5 |
| 20260906064534 | 21 | 9 | 0.0 | 3.2 | 0.00 | 0.00 | 0.00 | 97 | 978.5 |
| 20260906063026 | 21 | 9 | 0.0 | 3.2 | 0.00 | 0.00 | 0.00 | 97 | 978.5 |
| 20260906061526 | 21 | 10 | 1.6 | 8.0 | 0.00 | 0.00 | 0.00 | 97 | 978.4 |
| 20260906060023 | 21 | 9 | 0.0 | 8.0 | 0.00 | 0.00 | 0.00 | 97 | 978.3 |
| 20260906054521 | 22 | 10 | 3.2 | 11.3 | 0.00 | 0.00 | 0.00 | 97 | 978.1 |
| 20260906053021 | 22 | 10 | 3.2 | 11.3 | 0.00 | 0.00 | 0.00 | 97 | 978.1 |
| 20260906051513 | 22 | 9 | 3.2 | 11.3 | 0.00 | 0.00 | 0.00 | 97 | 978.1 |
| 20260906050026 | 22 | 10 | 3.2 | 9.7 | 0.00 | 0.00 | 0.00 | 96 | 978.1 |
| 20260906044509 | 22 | 8 | 3.2 | 11.3 | 0.00 | 0.00 | 0.00 | 96 | 978.3 |
| 20260906043010 | 22 | 9 | 3.2 | 8.0 | 0.00 | 0.00 | 0.00 | 96 | 978.0 |
| 20260906041507 | 22 | 9 | 1.6 | 6.4 | 0.00 | 0.00 | 0.00 | 97 | 978.1 |
| 20260906040009 | 22 | 9 | 3.2 | 8.0 | 0.00 | 0.00 | 0.00 | 97 | 978.1 |
| 20260906034505 | 22 | 10 | 1.6 | 6.4 | 0.00 | 0.00 | 0.00 | 96 | 978.1 |
| 20260906033005 | 22 | 9 | 1.6 | 8.0 | 0.00 | 0.00 | 0.00 | 97 | 978.1 |
| 20260906031504 | 23 | 8 | 3.2 | 6.4 | 0.00 | 0.00 | 0.00 | 96 | 977.9 |
| 20260906030004 | 23 | 9 | 1.6 | 6.4 | 0.00 | 0.00 | 0.00 | 96 | 977.9 |
| 20260906024505 | 23 | 10 | 1.6 | 6.4 | 0.00 | 0.00 | 0.00 | 96 | 977.7 |
| 20260906023002 | 23 | 8 | 3.2 | 9.7 | 0.00 | 0.00 | 0.00 | 96 | 977.6 |
| 20260906021502 | 23 | 10 | 3.2 | 11.3 | 0.00 | 0.00 | 0.00 | 96 | 977.4 |
| 20260906020001 | 24 | 8 | 0.0 | 8.0 | 0.00 | 0.00 | 0.00 | 95 | 977.3 |
| 20260906014621 | 25 | 9 | 1.6 | 6.4 | 0.00 | 0.00 | 0.00 | 95 | 976.9 |
| 20260906013059 | 25 | 10 | 3.2 | 6.4 | 0.00 | 0.00 | 0.00 | 95 | 976.5 |
| 20260906011605 | 25 | 9 | 1.6 | 6.4 | 0.00 | 0.00 | 0.00 | 94 | 976.4 |
| 20260906010059 | 26 | 9 | 1.6 | 6.4 | 0.00 | 0.00 | 0.00 | 92 | 976.5 |
| 20260906004600 | 26 | 8 | 0.0 | 4.8 | 0.00 | 0.00 | 0.00 | 90 | 976.5 |
| 20260906003106 | 26 | 8 | 0.0 | 8.0 | 0.00 | 0.00 | 0.00 | 89 | 976.4 |
| 20260906001557 | 27 | 8 | 1.6 | 4.8 | 0.00 | 0.00 | 0.00 | 88 | 976.3 |
| 20260906000056 | 27 | 9 | 0.0 | 4.8 | 0.00 | 0.00 | 0.00 | 87 | 976.3 |
| 20260905234612 | 27 | 9 | 0.0 | 1.6 | 0.00 | 0.00 | 0.00 | 87 | 976.5 |
| 20260905233055 | 28 | 9 | 0.0 | 6.4 | 0.00 | 0.00 | 0.00 | 84 | 976.2 |
| 20260905231554 | 28 | 9 | 1.6 | 6.4 | 0.00 | 0.00 | 0.00 | 84 | 976.3 |
| 20260905230054 | 28 | 9 | 3.2 | 9.7 | 0.00 | 0.00 | 0.00 | 83 | 976.1 |
| 20260905224553 | 28 | 10 | 4.8 | 8.0 | 0.00 | 0.00 | 0.00 | 84 | 976.0 |
| 20260905223052 | 28 | 9 | 3.2 | 8.0 | 0.00 | 0.00 | 0.00 | 84 | 976.0 |
| 20260905221552 | 29 | 9 | 0.0 | 6.4 | 0.00 | 0.00 | 0.00 | 82 | 976.3 |
| 20260905220053 | 29 | 10 | 3.2 | 11.3 | 0.00 | 0.00 | 0.00 | 80 | 976.1 |
| 20260905214602 | 29 | 9 | 3.2 | 9.7 | 0.00 | 0.00 | 0.00 | 82 | 976.0 |
| 20260905213050 | 30 | 325 | 3.2 | 8.0 | 0.00 | 0.00 | 0.00 | 78 | 976.0 |
| 20260905211548 | 30 | 356 | 4.8 | 9.7 | 0.00 | 0.00 | 0.00 | 79 | 975.8 |
| 20260905210048 | 30 | 30 | 11.3 | 22.5 | 0.00 | 0.00 | 0.00 | 81 | 975.0 |
| 20260905204547 | 30 | 316 | 9.7 | 20.9 | 0.00 | 0.00 | 0.00 | 81 | 975.2 |
| 20260905203046 | 30 | 350 | 8.0 | 17.7 | 0.00 | 0.00 | 0.00 | 81 | 975.6 |
| 20260905201545 | 30 | 333 | 6.4 | 16.1 | 0.00 | 0.00 | 0.00 | 84 | 976.0 |
| 20260905200047 | 30 | 309 | 6.4 | 14.5 | 0.00 | 0.00 | 0.00 | 85 | 976.3 |
| 20260905194541 | 29 | 324 | 6.4 | 16.1 | 0.00 | 0.00 | 0.00 | 84 | 976.6 |
| 20260905193040 | 30 | 9 | 4.8 | 12.9 | 0.00 | 0.00 | 0.00 | 86 | 976.8 |
| 20260905191539 | 28 | 10 | 6.4 | 16.1 | 0.00 | 0.00 | 0.00 | 86 | 976.8 |
| 20260905190035 | 28 | 9 | 6.4 | 14.5 | 0.00 | 0.00 | 0.00 | 88 | 977.0 |
| 20260905184538 | 27 | 9 | 0.0 | 6.4 | 0.00 | 0.00 | 0.00 | 89 | 977.2 |
| 20260905183037 | 27 | 6 | 1.6 | 6.4 | 0.00 | 0.00 | 0.00 | 88 | 977.7 |
| 20260905181534 | 28 | 6 | 3.2 | 9.7 | 0.00 | 0.00 | 0.00 | 84 | 978.0 |
| 20260905180033 | 28 | 7 | 1.6 | 12.9 | 0.00 | 0.00 | 0.00 | 85 | 977.7 |
| 20260905174539 | 28 | 8 | 1.6 | 8.0 | 0.00 | 0.00 | 0.00 | 84 | 977.7 |
| 20260905173028 | 28 | 8 | 0.0 | 4.8 | 0.00 | 0.00 | 0.00 | 86 | 978.0 |